Location: ??
(34.9170°N, 135.5016°E)
Time: 00:47:05
(UTC+00:00)

RS-15 - Pass Details

Date: 26 April 2021
Orbit: 1888 x 2157 km, 64.8° (Epoch: 12 May)

Event Time Altitude Azimuth Distance (km) Brightness Sun altitude
Rises 11:19:22 0° 272° (W) 5,325 11.3 -19.4°
Reaches altitude 10° 11:24:10 10° 289° (WNW) 4,369 11.0 -20.2°
Maximum altitude 11:31:38 19° 332° (NNW) 3,727 10.2 -21.4°
Drops below altitude 10° 11:39:22 10° 15° (NNE) 4,521 10.2 -22.7°
Sets 11:44:33 0° 32° (NNE) 5,572 10.5 -23.6°
